Home > Weather > Vantaa > Past weeks

Flag for Finland Weather for the Past 2 Weeks in Vantaa, Finland

Now
36 °F

Passing clouds.


Feels Like: 25 °F
Forecast: 36 / 39 °F
Wind: 20 mph from South

Location: Helsinki-Vantaa

Current Time: Feb 8, 2016 at 9:09:14 PM

Latest Report: Feb 8, 2016 at 8:50 PM


Visibility: N/A

Pressure: 29.42 "Hg

Humidity: 100%

Dew point: 36 °F

Location of VantaaLocation

Historic Weather in Vantaa — Graph

°F

Vantaa Temperature Yesterday

Maximum temperature yesterday: 37 °F (at 3:20 AM)
Minimum temperature yesterday: 36 °F (at 12:20 AM)
Average temperature yesterday: 36 °F

High & Low Weather Summary for the Past Weeks

 TemperatureHumidityPressure
High41 °F (Jan 30, 2:20 AM)100% (Jan 24, 7:20 PM)30.04 "Hg (Jan 24, 7:20 PM)
Low18 °F (Feb 6, 7:20 AM)69% (Feb 5, 2:50 PM)28.71 "Hg (Feb 2, 7:20 AM)
Average32 °F93%29.40 "Hg
* Reported Jan 24 7:20 PM — Feb 8 7:50 PM, Vantaa, Weather by CustomWeather, © 2016

Note: Actual official high and low records may vary slightly from our data, if they occured in-between our weather recording intervals... More about our weather records

Advertising

Vantaa Weather History for the Previous 24 Hours

 ConditionsComfort  
Time TempWeatherWind HumidityBarometerVisibility
7:50 PM
Mon, Feb 8
36 °FPassing clouds.18 mph100%29.42 "HgN/A
7:20 PM37 °FPassing clouds.16 mph93%29.42 "HgN/A
6:50 PM37 °FPassing clouds.14 mph93%29.42 "Hg5 mi
6:20 PM36 °FPassing clouds.14 mph100%29.42 "Hg4 mi
5:50 PM36 °FLow clouds.15 mph100%29.42 "Hg4 mi
5:20 PM36 °FDrizzle. Fog.15 mph100%29.42 "Hg2 mi
4:50 PM36 °FFog.14 mph100%29.42 "Hg1 mi
4:20 PM34 °FFog.14 mph100%29.42 "Hg3 mi
3:50 PM34 °FLight rain. Partly sunny.13 mph100%29.42 "Hg4 mi
3:20 PM34 °FLight rain. Partly sunny.10 mph100%29.42 "Hg3 mi
2:50 PM34 °FLight snow. Partly sunny.10 mph93%29.42 "Hg1 mi
2:20 PM32 °FLight snow. Partly sunny.12 mph100%29.42 "Hg1 mi
1:50 PM32 °FLight snow. Partly sunny.13 mph100%29.42 "Hg1 mi
1:20 PM34 °FLight snow. Partly sunny.14 mph93%29.42 "Hg1 mi
12:50 PM34 °FLight rain. Partly sunny.12 mph100%29.42 "Hg1 mi
12:20 PM34 °FLight rain. Partly sunny.13 mph100%29.42 "Hg3 mi
11:50 AM36 °FLight rain. Partly sunny.15 mph93%29.42 "Hg4 mi
11:20 AM36 °FLight rain. Partly sunny.14 mph93%29.42 "HgN/A
10:50 AM36 °FPartly sunny.15 mph93%29.42 "HgN/A
10:20 AM36 °FPartly sunny.14 mph93%29.42 "HgN/A
9:50 AM36 °FPartly sunny.14 mph93%29.42 "HgN/A
9:20 AM36 °FPartly sunny.13 mph93%29.45 "HgN/A
8:50 AM36 °FPartly sunny.14 mph93%29.45 "HgN/A
8:20 AM36 °FPartly sunny.16 mph93%29.45 "HgN/A
7:50 AM36 °FPassing clouds.15 mph93%29.45 "HgN/A
7:20 AM36 °FPassing clouds.14 mph93%29.45 "HgN/A
6:50 AM36 °FPartly cloudy.14 mph93%29.45 "HgN/A
6:20 AM36 °FPassing clouds.15 mph93%29.47 "HgN/A
5:50 AM36 °FPassing clouds.12 mph93%29.47 "HgN/A
5:20 AM36 °FPassing clouds.12 mph93%29.47 "Hg5 mi
4:50 AM36 °FPassing clouds.13 mph93%29.47 "Hg5 mi
4:20 AM36 °FPassing clouds.14 mph93%29.50 "Hg5 mi
3:50 AM36 °FPassing clouds.13 mph93%29.50 "Hg5 mi
2:50 AM36 °FPassing clouds.13 mph93%29.50 "Hg5 mi
2:20 AM36 °FPassing clouds.10 mph93%29.53 "Hg4 mi
1:50 AM36 °FPassing clouds.12 mph93%29.53 "Hg4 mi
12:50 AM36 °FPassing clouds.13 mph100%29.56 "Hg4 mi
12:20 AM36 °FPassing clouds.16 mph100%29.56 "Hg4 mi
11:50 PM
Sun, Feb 7
36 °FFog.13 mph100%29.56 "Hg3 mi
11:20 PM36 °FFog.14 mph100%29.59 "Hg2 mi
10:50 PM36 °FFog.14 mph100%29.59 "Hg2 mi
10:20 PM36 °FFog.14 mph100%29.59 "Hg2 mi
9:50 PM36 °FFog.14 mph100%29.59 "Hg2 mi
9:20 PM36 °FFog.15 mph100%29.59 "Hg1 mi
Weather by CustomWeather, © 2016

See weather overviewHow to use our weather pages